Tracking 31080 objects as of 20-Jul-2025
HD Live streaming from Space Station
objects crossing your sky now

METEOR 2-17 DEB

Track METEOR 2-17 DEB now!
10-day predictions


NORAD ID: 31397
Int'l Code: 1988-005S
Perigee: 884.8 km
Apogee: 899.2 km
Inclination: 82.5 °
Period: 102.7 minutes
Semi major axis: 7263 km
RCS: 0.0107 m2 (small)
Launch date: January 30, 1988
Source: Commonwealth of Independent States (former USSR) (CIS)
Launch site: PLESETSK MISSILE AND SPACE COMPLEX (PKMTR)

Note: This is SATELLITE DEBRIS
Your satellite tracking list
Your tracking list is empty




NASA's NSSDC Master Catalog

Two Line Element Set (TLE):
1 31397U 88005S   25198.70306979  .00001671  00000-0  10748-2 0  9997
2 31397  82.5326 182.0565 0009970 102.9548  18.8465 14.02582586943326
Source of the keplerian elements: AFSPC